ROMMA est une association bénévole à but non lucratif. Votre soutien est indispensable : ADHERER à ROMMA ou FAIRE un DON

Saint-Martin-d'Hères - (38, Isère)

Vallée du Grésivaudan (220 m)   Longitude: 05° 45' 05" E   Latitude: 45° 10' 02" N Station partenaire n°4
 

Détail journalier du     <<     >>

Température Precipitation Humidité Pression Vent Dir Rafale Dir. rafale Ensol.
Heure (°C) (mm) (%) (hPa) (km/h) (km/h) (min)
01:00 11.7096101700---0
02:00 11.9096101800---0
03:00 12.0096101700---0
04:00 11.6096101700---0
05:00 11.6096101800---0
06:00 11.1096101805NNE0
07:00 10.30.296101800---0
08:00 9.8096101900---0
09:00 10.1096101900---0
10:00 11.0097102000---0
11:00 13.1097102000---0
12:00 14.3092102000---10
13:00 18.1073102005NNE50
14:00 19.706310191S11S60
15:00 20.006510192SSE19SSE50
16:00 21.405910192ONO19NNO60
17:00 20.206210192NO19NNO50
18:00 19.106610191NO16NNO10
19:00 17.0080101906NNO0
20:00 15.9083102003SSE0
21:00 15.3087102000---0
22:00 14.1089102100---0
23:00 13.0092102100---0
minuit 12.4094102100---0

Graphique du 08-10-2018

 

Serveur OMMA